Voltar ao catálogo

DELTA 2 DEB

LostHEO
NORAD 29534·DEBRIS·🇺🇸 United States

Lançado Sep 26, 2005 de Cape Canaveral Space Force Station

Loading…

Próximas Passagens (próximas 24 horas)

TLE

ObsoletoSource: Space-Track

Época: Jul 9, 2026, 11:00 UTC

1 29534U 05038D   26190.45845965  .00012039  00000-0  12659-2 0  9993
2 29534  39.5267 313.2541 5732989 139.4835 281.7781  4.47928587310699

Acompanhe DELTA 2 DEB em tempo real com AllMySat

Download on the App Store